VE3ZEB-1 Weather Reports


Display with metric or nautical units.
time (UTC)temp
F
wind
direction
speed
MPH
gust
MPH
rain 1hr
in
rain 24hr
in
rain mn
in
humidity
%
barometer
mb
20260905091547 63 253 1.0 3.0 0.00 0.00 0.00 99 679.8
20260905090517 63 243 1.0 2.0 0.00 0.00 0.00 99 679.8
20260905085447 63 256 1.0 2.0 0.00 0.00 0.00 99 679.8
20260905084502 63 278 1.0 3.0 0.00 0.00 0.00 99 679.8
20260905083600 64 270 2.0 4.0 0.00 0.00 0.00 99 679.8
20260905082522 64 265 2.0 3.0 0.00 0.00 0.00 99 679.8
20260905081502 64 270 2.0 3.0 0.00 0.00 0.00 99 679.8
20260905080502 64 249 1.0 3.0 0.00 0.00 0.00 99 679.8
20260905075503 64 249 1.0 2.0 0.00 0.00 0.00 99 679.8
20260905074509 64 0.0 0.0 0.00 0.00 0.00 99 679.8
20260905073546 64 273 1.0 3.0 0.00 0.00 0.00 99 679.8
20260905072518 64 260 1.0 3.0 0.00 0.00 0.00 99 679.8
20260905071503 64 229 1.0 2.0 0.00 0.00 0.00 99 679.8
20260905070449 64 0.0 0.0 0.00 0.00 0.00 99 679.8
20260905065504 64 269 1.0 1.0 0.00 0.00 0.00 99 679.8
20260905064503 64 270 0.0 2.0 0.00 0.00 0.00 99 679.8
20260905063549 64 267 1.0 2.0 0.00 0.00 0.00 99 679.8
20260905062509 64 273 1.0 2.0 0.00 0.00 0.00 99 679.8
20260905061504 64 263 2.0 4.0 0.00 0.00 0.00 99 679.8
20260905060605 65 261 2.0 3.0 0.00 0.00 0.00 99 679.8
20260905055549 65 272 3.0 4.0 0.00 0.00 0.00 99 679.8
20260905054450 65 224 1.0 2.0 0.00 0.00 0.00 99 679.8
20260905053504 65 253 1.0 2.0 0.00 0.00 0.00 99 679.8
20260905052505 65 245 1.0 2.0 0.00 0.00 0.00 99 679.9
20260905051504 65 270 1.0 2.0 0.00 0.00 0.00 99 679.9
20260905050506 66 269 1.0 2.0 0.00 0.00 0.00 99 679.9
20260905045510 66 241 1.0 2.0 0.00 0.00 0.00 99 679.9
20260905044520 66 266 2.0 4.0 0.00 0.00 0.00 99 679.9
20260905043541 67 272 1.0 2.0 0.00 0.00 0.00 99 679.9
20260905042450 67 267 2.0 3.0 0.00 0.00 0.00 99 679.9
20260905041527 67 222 2.0 4.0 0.00 0.00 0.00 99 679.9
20260905040506 67 220 3.0 4.0 0.00 0.00 0.00 99 679.9
20260905035521 68 0.0 0.0 0.00 0.00 0.00 99 679.9
20260905034521 68 213 1.0 2.0 0.00 0.00 0.00 99 679.9
20260905033527 68 242 2.0 3.0 0.00 0.00 0.00 99 679.9
20260905032521 68 216 2.0 3.0 0.00 0.00 0.00 99 679.9
20260905031521 68 241 0.0 2.0 0.00 0.00 0.00 99 679.9
20260905030507 68 187 1.0 1.0 0.00 0.00 0.00 99 679.9
20260905025529 68 0.0 0.0 0.00 0.00 0.00 99 679.9
20260905024521 68 151 0.0 1.0 0.00 0.00 0.00 99 679.9
20260905023545 68 139 0.0 2.0 0.00 0.00 0.00 99 679.9
20260905022522 68 197 1.0 2.0 0.00 0.00 0.00 99 679.9
20260905021508 68 215 1.0 1.0 0.00 0.00 0.00 99 679.9
20260905020509 68 220 0.0 1.0 0.00 0.00 0.00 99 679.9
20260905015543 68 239 0.0 2.0 0.00 0.00 0.00 99 679.9
20260905014453 68 217 2.0 3.0 0.00 0.00 0.00 99 679.9
20260905013508 68 215 2.0 3.0 0.00 0.00 0.00 99 679.9
20260905012507 68 0.0 0.0 0.00 0.00 0.00 99 679.9
20260905011509 68 0.0 0.0 0.00 0.00 0.00 99 679.9
20260905010509 69 0 0.0 0.0 0.00 0.00 0.00 99 679.9
20260905005603 69 0.0 0.0 0.00 0.00 0.00 99 679.9
20260905004453 69 0.0 0.0 0.00 0.00 0.00 99 680.0
20260905003530 0 0.0 0.0 0.00 0.00 0.00
20260905002509 70 222 0.0 2.0 0.00 0.00 0.00 99 680.0
20260905001514 70 230 1.0 2.0 0.00 0.00 0.00 99 680.0
20260905000530 70 304 0.0 1.0 0.00 0.00 0.00 99 680.0
20260904235529 70 235 0.0 1.0 0.00 0.00 0.00 99 680.0
20260904234536 71 223 0.0 1.0 0.00 0.00 0.00 99 680.0
20260904233533 71 215 0.0 2.0 0.00 0.00 0.00 99 680.0
20260904232454 71 258 1.0 1.0 0.00 0.00 0.00 99 680.0
20260904231510 71 296 0.0 3.0 0.00 0.00 0.00 99 680.0
20260904230510 71 240 1.0 2.0 0.00 0.00 0.00 99 680.0
20260904225511 71 0.0 0.0 0.00 0.00 0.00 99 680.0
20260904224455 71 218 1.0 1.0 0.00 0.01 0.00 99 680.0
20260904223539 72 281 1.0 2.0 0.00 0.01 0.00 99 680.0
20260904222510 72 260 1.0 3.0 0.00 0.01 0.00 99 680.0
20260904221531 72 280 2.0 4.0 0.00 0.01 0.00 99 680.0
20260904220511 72 257 2.0 3.0 0.00 0.01 0.00 99 680.0
20260904215526 72 268 2.0 4.0 0.00 0.01 0.00 99 680.0
20260904214516 73 0.0 0.0 0.00 0.03 0.00 99 680.0
20260904213456 73 0.0 0.0 0.00 0.03 0.00 99 680.0
20260904212515 73 270 3.0 6.0 0.00 0.07 0.00 99 680.0
20260904211532 73 226 2.0 3.0 0.00 0.13 0.00 99 680.0
20260904210456 73 260 2.0 4.0 0.00 0.18 0.00 99 680.0
20260904205512 73 264 2.0 5.0 0.00 0.19 0.00 99 680.0
20260904204517 73 207 3.0 3.0 0.00 0.23 0.00 99 680.0
20260904203457 73 275 2.0 3.0 0.00 0.28 0.00 99 680.0
20260904202557 74 0.0 0.0 0.00 0.30 0.00 99 680.0
20260904201759 74 252 3.0 7.0 0.00 0.31 0.00 99 680.1
20260904200537 0 0.0 0.0 0.00 0.31 0.00
20260904195457 75 0.0 0.0 0.00 0.31 0.00 99 680.1
20260904194458 75 235 4.0 5.0 0.00 0.31 0.00 99 680.1
20260904193614 75 252 1.0 2.0 0.00 0.31 0.00 99 680.1
20260904192458 75 237 2.0 4.0 0.00 0.31 0.00 99 680.1
20260904191531 75 219 3.0 3.0 0.00 0.31 0.00 99 680.1
20260904190649 75 215 2.0 2.0 0.00 0.31 0.00 99 680.0
20260904185545 75 254 2.0 5.0 0.00 0.31 0.00 99 680.1
20260904184459 75 0.0 0.0 0.00 0.31 0.00 99 680.1
20260904183554 0 221 1.0 2.0 0.00 0.31 0.00
20260904182748 0 215 4.0 4.0 0.00 0.31 0.00
20260904181543 74 203 2.0 4.0 0.00 0.31 0.00 99 680.1
20260904180548 75 240 0.0 1.0 0.00 0.31 0.00 99 680.0
20260904175715 74 196 1.0 1.0 0.00 0.31 0.00 99 680.0
20260904174519 74 14 1.0 2.0 0.00 0.31 0.00 99 680.0
20260904173530 74 0.0 0.0 0.00 0.31 0.00 99 680.0
20260904172739 73 180 1.0 2.0 0.00 0.31 0.00 99 680.0
20260904171516 72 203 1.0 2.0 0.00 0.31 0.00 99 680.0
20260904170716 71 144 1.0 2.0 0.00 0.31 0.00 99 680.0
20260904165553 71 24 2.0 3.0 0.00 0.31 0.00 99 680.0
20260904164616 70 4 1.0 3.0 0.00 0.31 0.00 99 679.9
20260904163500 70 0 0.0 0.0 0.00 0.31 0.00 99 679.9
20260904162530 70 71 2.0 3.0 0.00 0.31 0.00 99 680.0
20260904161500 0 41 2.0 3.0 0.00 0.31 0.00
20260904160550 70 55 2.0 3.0 0.00 0.31 0.00 99 679.9
20260904155500 70 49 2.0 2.0 0.00 0.31 0.00 99 679.9
20260904154524 0 43 1.0 1.0 0.00 0.31 0.00
20260904153841 69 42 2.0 2.0 0.00 0.31 0.00 99 679.9
20260904152533 69 4 2.0 2.0 0.00 0.31 0.00 99 679.9
20260904151518 69 55 2.0 2.0 0.00 0.31 0.00 99 679.9
20260904150516 69 20 1.0 1.0 0.00 0.31 0.00 99 679.9
20260904145502 68 23 1.0 3.0 0.00 0.31 0.00 99 679.9
20260904144517 68 4 1.0 2.0 0.00 0.31 0.00 99 679.9
20260904143517 68 4 0.0 2.0 0.00 0.31 0.00 99 679.9
20260904142501 68 27 0.0 1.0 0.00 0.31 0.00 99 679.9
20260904141502 68 0.0 0.0 0.00 0.31 0.00 99 679.9
20260904140517 68 230 0.0 1.0 0.00 0.31 0.00 99 679.9
20260904135602 67 3 1.0 3.0 0.00 0.30 0.00 99 679.9
20260904134539 67 336 1.0 1.0 0.00 0.30 0.00 99 679.9
20260904133502 67 304 1.0 1.0 0.00 0.30 0.00 99 679.9
20260904132518 67 326 0.0 1.0 0.00 0.30 0.00 99 679.9
20260904131538 67 345 1.0 2.0 0.00 0.30 0.00 99 679.9
20260904130503 67 6 0.0 1.0 0.00 0.30 0.00 99 679.9
20260904125519 66 312 0.0 1.0 0.00 0.30 0.00 99 679.9
20260904124518 66 276 0.0 1.0 0.00 0.30 0.00 99 679.9
20260904123544 66 0.0 0.0 0.00 0.30 0.00 99 679.9
20260904122503 66 330 0.0 1.0 0.00 0.30 0.00 99 679.9
20260904121518 65 354 1.0 2.0 0.00 0.30 0.00 99 679.9
20260904120620 65 335 0.0 1.0 0.00 0.30 0.00 99 679.8
20260904115503 65 0.0 0.0 0.00 0.30 0.00 99 679.8
20260904114519 65 347 0.0 1.0 0.00 0.30 0.00 99 679.8
20260904113559 65 0.0 0.0 0.00 0.30 0.00 99 679.8
20260904112504 64 0.0 0.0 0.00 0.30 0.00 99 679.8
20260904111519 64 0.0 0.0 0.00 0.30 0.00 99 679.8
20260904110520 64 0.0 0.0 0.00 0.30 0.00 99 679.8
20260904105519 64 8 0.0 1.0 0.00 0.30 0.00 99 679.8
20260904104539 64 0.0 0.0 0.00 0.30 0.00 99 679.8
20260904103540 65 0.0 0.0 0.00 0.30 0.00 99 679.8
20260904102504 65 0.0 0.0 0.00 0.30 0.00 99 679.8
20260904101535 65 266 0.0 2.0 0.00 0.30 0.00 99 679.8
20260904100520 65 315 0.0 1.0 0.00 0.30 0.00 99 679.8
20260904095526 65 218 1.0 2.0 0.00 0.30 0.00 99 679.8
20260904094506 65 250 1.0 1.0 0.00 0.30 0.00 99 679.8
20260904093521 65 226 0.0 1.0 0.00 0.30 0.00 99 679.8
20260904092521 65 247 0.0 1.0 0.00 0.30 0.00 99 679.8